Location: Valencia
(39.4670°N, 0.3670°W)
Time: 08:48:37
(UTC+02:00)

ISS - Pass Details

Date: 06 July 2017
Orbit: 400 x 408 km, 51.6° (Epoch: 21 July)

Event Time Altitude Azimuth Distance (km) Brightness Sun altitude
Exits shadow 05:22:40 19° 192° (SSW) 1,026 -2.3 -12.8°
Maximum altitude 05:24:30 36° 136° (SE) 659 -2.8 -12.5°
Drops below altitude 10° 05:27:31 10° 68° (ENE) 1,456 0.2 -12.1°
Sets 05:29:42 0° 59° (ENE) 2,320 1.8 -11.8°
